UAL2377 KLAX-KIAH

Flight info

Callsign UAL2377
Flight time N/A
Altitude 37000
Route DOTSS2 CNERY DCT BLH DCT SPTFR Q4 FUSCO DCT DIESL TTORO3
Aircraft B738/M-SDE2E3FGHIRWXY/LB1

Departure

Time 2026-05-04 04:47
Airport Los Angeles International Airport (KLAX)

Arrival

Time N/A
Airport George Bush Intercontinental Airport (KIAH)
Time Latitude Longitude Altitude Speed Heading
2026-05-04 03:58 33.94133 -118.39765 92 ft 0 kts 83°
2026-05-04 04:29 33.94131 -118.39784 92 ft 4 kts 83°
2026-05-04 04:30 33.94128 -118.39810 94 ft 4 kts 96°
2026-05-04 04:30 33.94138 -118.39831 93 ft 4 kts 166°
2026-05-04 04:30 33.94140 -118.39833 93 ft 4 kts 173°
2026-05-04 04:30 33.94113 -118.39829 94 ft 4 kts 173°
2026-05-04 04:31 33.94095 -118.39826 93 ft 1 kts 173°
2026-05-04 04:36 33.94080 -118.39826 92 ft 4 kts 183°
2026-05-04 04:36 33.94046 -118.39827 94 ft 6 kts 179°
2026-05-04 04:37 33.93908 -118.39745 94 ft 9 kts 101°
2026-05-04 04:37 33.93912 -118.39661 94 ft 11 kts 83°
2026-05-04 04:38 33.93923 -118.39563 94 ft 13 kts 83°
2026-05-04 04:38 33.93935 -118.39452 95 ft 14 kts 83°
2026-05-04 04:38 33.93947 -118.39325 92 ft 16 kts 83°
2026-05-04 04:38 33.93962 -118.39193 92 ft 16 kts 82°
2026-05-04 04:39 33.93973 -118.39068 93 ft 14 kts 84°
2026-05-04 04:39 33.93985 -118.38956 95 ft 13 kts 80°
2026-05-04 04:39 33.93996 -118.38848 93 ft 13 kts 84°
2026-05-04 04:39 33.94007 -118.38743 93 ft 12 kts 83°
2026-05-04 04:40 33.94018 -118.38641 94 ft 12 kts 83°
2026-05-04 04:40 33.94027 -118.38541 96 ft 12 kts 83°
2026-05-04 04:40 33.94037 -118.38444 97 ft 12 kts 83°
2026-05-04 04:40 33.94047 -118.38350 95 ft 11 kts 83°
2026-05-04 04:41 33.94057 -118.38257 94 ft 12 kts 83°
2026-05-04 04:41 33.94068 -118.38148 93 ft 14 kts 83°
2026-05-04 04:41 33.94077 -118.38054 92 ft 6 kts 86°
2026-05-04 04:41 33.94074 -118.38032 92 ft 0 kts 108°
2026-05-04 04:43 33.94068 -118.38020 93 ft 4 kts 125°
2026-05-04 04:43 33.94031 -118.37999 92 ft 8 kts 171°
2026-05-04 04:43 33.93984 -118.38032 92 ft 9 kts 255°
2026-05-04 04:43 33.93981 -118.38050 94 ft 0 kts 262°
2026-05-04 04:44 33.93977 -118.38090 93 ft 24 kts 263°
2026-05-04 04:45 33.93927 -118.38574 99 ft 92 kts 263°
2026-05-04 04:45 33.93826 -118.39583 104 ft 148 kts 262°
2026-05-04 04:45 33.93675 -118.40898 557 ft 164 kts 260°
2026-05-04 04:47 33.90383 -118.49690 3509 ft 231 kts 208°
2026-05-04 04:47 33.88779 -118.50067 4014 ft 239 kts 184°
2026-05-04 04:47 33.87062 -118.50179 4322 ft 256 kts 186°
2026-05-04 04:47 33.85247 -118.50334 4895 ft 265 kts 186°
2026-05-04 04:48 33.83398 -118.50512 5642 ft 269 kts 188°
2026-05-04 04:49 33.75824 -118.51362 8750 ft 274 kts 188°
2026-05-04 04:49 33.73926 -118.51586 9550 ft 275 kts 188°
2026-05-04 04:49 33.72000 -118.51658 10248 ft 283 kts 174°
2026-05-04 04:49 33.70087 -118.50760 10460 ft 314 kts 147°
2026-05-04 04:50 33.68658 -118.48694 10912 ft 334 kts 118°
2026-05-04 04:50 33.67831 -118.46056 11588 ft 340 kts 112°
2026-05-04 04:50 33.67083 -118.43347 12277 ft 344 kts 112°
2026-05-04 04:50 33.66313 -118.40621 12978 ft 347 kts 113°
2026-05-04 04:51 33.65510 -118.37864 13704 ft 351 kts 114°
2026-05-04 04:51 33.64973 -118.36023 14131 ft 355 kts 112°
2026-05-04 04:51 33.64432 -118.33087 14660 ft 369 kts 99°
2026-05-04 04:51 33.64342 -118.29961 15187 ft 380 kts 94°
2026-05-04 04:52 33.64359 -118.26756 15729 ft 388 kts 93°
2026-05-04 04:52 33.64394 -118.23496 16273 ft 395 kts 93°
2026-05-04 04:52 33.64425 -118.20195 16791 ft 403 kts 93°
2026-05-04 04:52 33.64446 -118.16761 17318 ft 411 kts 93°
2026-05-04 04:53 33.64456 -118.13312 17841 ft 418 kts 94°
2026-05-04 04:53 33.64459 -118.09790 18374 ft 425 kts 94°
2026-05-04 04:53 33.64458 -118.06216 18864 ft 430 kts 94°
2026-05-04 04:53 33.64456 -118.02628 19461 ft 432 kts 94°
2026-05-04 04:54 33.64451 -117.99011 20043 ft 435 kts 94°
2026-05-04 04:54 33.64446 -117.95371 20594 ft 438 kts 94°
2026-05-04 04:54 33.64439 -117.91693 21090 ft 443 kts 94°
2026-05-04 04:54 33.64432 -117.87977 21577 ft 448 kts 94°
2026-05-04 04:55 33.64423 -117.84225 22112 ft 451 kts 94°
2026-05-04 04:55 33.64349 -117.80454 22636 ft 452 kts 99°
2026-05-04 04:55 33.63846 -117.76746 23140 ft 449 kts 111°
2026-05-04 04:55 33.62976 -117.73157 23650 ft 450 kts 113°
2026-05-04 04:56 33.62048 -117.69556 24047 ft 454 kts 114°
2026-05-04 04:56 33.61105 -117.65916 24406 ft 459 kts 114°
2026-05-04 04:56 33.60166 -117.62247 24773 ft 464 kts 114°
2026-05-04 04:56 33.59229 -117.58524 25139 ft 468 kts 114°
2026-05-04 04:57 33.58292 -117.54762 25513 ft 473 kts 114°
2026-05-04 04:57 33.57352 -117.50965 25887 ft 477 kts 114°
2026-05-04 04:57 33.56406 -117.47136 26225 ft 481 kts 113°
2026-05-04 04:57 33.55451 -117.43283 26570 ft 485 kts 114°
2026-05-04 04:58 33.54484 -117.39387 26911 ft 489 kts 113°
2026-05-04 04:58 33.53540 -117.35437 27170 ft 495 kts 114°
2026-05-04 04:58 33.52538 -117.31480 27470 ft 499 kts 115°
2026-05-04 04:58 33.51521 -117.27485 27800 ft 503 kts 114°
2026-05-04 04:59 33.50641 -117.23396 28137 ft 512 kts 107°
2026-05-04 04:59 33.50244 -117.19104 28422 ft 525 kts 96°
2026-05-04 04:59 33.50183 -117.14725 28701 ft 529 kts 94°
2026-05-04 04:59 33.50179 -117.10302 29047 ft 532 kts 94°
2026-05-04 05:00 33.50180 -117.05852 29342 ft 536 kts 94°
2026-05-04 05:00 33.50164 -117.01369 29612 ft 540 kts 95°
2026-05-04 05:00 33.50066 -116.92316 30168 ft 547 kts 95°
2026-05-04 05:01 33.49996 -116.87750 30439 ft 549 kts 95°